Regional Weather Roundup
Issued by NWS Cleveland, OH

Home | Current Version | Previous Version | Text Only | Print | Product List | Glossary On
Versions: 1 2 3 4 5 6 7 8 9 10 11 12 13 14 15 16 17 18 19 20 21 22 23 24 25 26 27 28 29 30 31 32 33 34 35 36 37 38 39 40 41 42 43 44 45 46 47 48 49 50
000
ASUS41 KCLE 261610
RWRCLE
OHIO REGIONAL WEATHER ROUNDUP
NATIONAL WEATHER SERVICE CLEVELAND, OH
1200 PM EDT SUN APR 26 2015

NOTE: "FAIR" INDICATES FEW OR NO CLOUDS BELOW 12,000 FEET WITH NO
SIGNIFICANT WEATHER AND/OR OBSTRUCTIONS TO VISIBILITY.

OHZ001>008-015>018-024>027-034-035-043-044-261700-
   NORTHWEST OHIO

CITY           SKY/WX    TMP DP  RH WIND       PRES   REMARKS
DEFIANCE       SUNNY     53  29  39 N13G22    29.92S
FINDLAY        SUNNY     52  31  44 N14       29.89R
TOLEDO EXPRESS SUNNY     53  27  36 NE12G21   29.91R
TOLEDO EXEC    SUNNY     52  29  41 NE13      29.92S
LIMA           SUNNY     50  35  56 N12G22    29.89R
$$

OHZ009>014-019>023-028>033-038-089-261700-
   NORTHEAST OHIO

CITY           SKY/WX    TMP DP  RH WIND       PRES   REMARKS
CLE-HOPKINS    SUNNY     49  36  61 N12       29.90R
CLE-LAKEFRONT  SUNNY     45  37  73 N10       29.88R
CUY CO. ARPT   NOT AVBL
LORAIN-ELYRIA  SUNNY     49  35  58 N10       29.88R
ASHTABULA      SUNNY     52  29  41 N8        29.85S
AKRON-CANTON   MOSUNNY   53  27  36 E7        29.82S
WOOSTER        SUNNY     52  28  39 NE10G20   29.84S
MANSFIELD      SUNNY     51  29  42 N15       29.84S
YOUNGSTOWN     MOSUNNY   52  28  39 N8        29.82S
$$

OHZ042-051>053-060>062-070>072-077>081-261700-
  SOUTHWEST OHIO

CITY           SKY/WX    TMP DP  RH WIND       PRES   REMARKS
CINC-COVINGTON MOSUNNY   53  36  52 N12       29.85R
CINC-LUNKEN    SUNNY     53  36  52 N9        29.86R
HAMILTON       SUNNY     53  36  52 N12       29.87S
DAYTON         MOSUNNY   52  35  52 NE16      29.87R
WRIGHT-PAT AFB MOSUNNY   53  33  46 N17G23    29.85R
DAYTON GENERAL SUNNY     53  35  50 N14G20    29.85R
WILMINGTON     SUNNY     51  37  58 NE13      29.84R
$$

OHZ036-037-039>041-045>050-054>059-063>069-073>076-082>088-261700-
  CENTRAL AND SOUTHEAST OHIO

CITY           SKY/WX    TMP DP  RH WIND       PRES   REMARKS
COLUMBUS       MOSUNNY   54  36  50 N9        29.82R
OSU AIRPORT    SUNNY     54  35  48 N15       29.83R
BOLTON FIELD   SUNNY     54  36  50 N13       29.83R
RICKENBACK AFB SUNNY     53  34  48 N10       29.82R
NEWARK         SUNNY     55  35  47 N8        29.81R
MARION         SUNNY     52  33  48 NE20      29.86R
LANCASTER      SUNNY     56  39  53 VRB7      29.82R
ZANESVILLE     SUNNY     53  33  46 VRB3      29.80R
NEW PHILLY     SUNNY     56  31  38 N10       29.81S
$$


USA.gov is the U.S. government's official web portal to all federal, state and local government web resources and services.